Weather in Kalnciems

Latvia     56°47′56″N   23°36′54″E
temp.,
°C
wind,
m/s
gust,
m/s
humid.,
%
clouds,
%
prec.,
mm/h
press.,
hPa
HPBL,
m
17 may, mon
mon1700:00+13sse1194100 0.9 100611
03:00+13ese41196100 1.4 1005458
06:00+13se41098100 1.5 1003476
09:00+13s3697100 4.1 1004442
12:00+13s2695100 2.2 1006409
15:00+17se2370100 3.3 10061034
18:00+18ese3267100 0.3 1005564
21:00+13e2490100 0.3 100587
18 may, tue
tue1800:00+10nne2496100 0.0 100576
03:00+9n2497100 0.0 100694
06:00+9nnw2597100 0.0 1005116
09:00+11n3583100 0.0 1005284
12:00+15n4665100 0.0 1005653
15:00+16n4555100 0.0 1005816
18:00+16n465496 0.0 1005587
21:00+11n3878100 0.0 1005217
19 may, wed
wed1900:00+8nnw3984100 0.0 1005191
03:00+8nnw2691100 0.0 1005119
06:00+7nw2788100 0.0 1005149
09:00+13nnw3668100 0.0 1006511
12:00+17nnw355650 0.0 10061461
15:00+17n3456100 0.2 10071088
18:00+16nne465581 0.0 1008650
21:00+12n117577 0.0 101027
20 may, thu
thu2000:00+9wnw3893100 0.0 1010223
03:00+8nw279598 0.0 1010190
06:00+8nw3992100 0.0 1011248
09:00+12n4973100 0.0 1011612
12:00+14n5861100 0.0 10111022
15:00+15n5961100 0.0 10101059
18:00+14nnw51064100 0.0 10091252
21:00+11nw61364100 0.0 1008782
21 may, fri
fri2100:00+9nw61462100 0.0 1007755
03:00+9nw51465100 0.0 1005733
06:00+9wnw61473100 0.0 1004585
09:00+11wnw61268100 0.0 1004781
12:00+14wnw71052100 0.0 10051681
15:00+14w6854100 0.0 10061831
18:00+14w674823 0.0 10071937
21:00+10wsw597213 0.0 1008708